site,time,unit,value
Rogerstone,2024-04-30T00:05:00+01:00,MW,-6.621
Rogerstone,2024-04-30T00:10:00+01:00,MW,-6.798
Rogerstone,2024-04-30T00:15:00+01:00,MW,-6.5920000000000005
Rogerstone,2024-04-30T00:20:00+01:00,MW,-6.573
Rogerstone,2024-04-30T00:25:00+01:00,MW,-6.625
Rogerstone,2024-04-30T00:30:00+01:00,MW,-6.465999999999999
Rogerstone,2024-04-30T00:35:00+01:00,MW,-6.494
Rogerstone,2024-04-30T00:40:00+01:00,MW,-6.542
Rogerstone,2024-04-30T00:45:00+01:00,MW,-6.404999999999999
Rogerstone,2024-04-30T00:50:00+01:00,MW,-6.316
Rogerstone,2024-04-30T00:55:00+01:00,MW,-6.2989999999999995
Rogerstone,2024-04-30T01:00:00+01:00,MW,-6.088
Rogerstone,2024-04-30T01:05:00+01:00,MW,-6.295999999999999
Rogerstone,2024-04-30T01:10:00+01:00,MW,-6.225
Rogerstone,2024-04-30T01:15:00+01:00,MW,-6.169
Rogerstone,2024-04-30T01:20:00+01:00,MW,-6.148
Rogerstone,2024-04-30T01:25:00+01:00,MW,-6.093999999999999
Rogerstone,2024-04-30T01:30:00+01:00,MW,-6.051
Rogerstone,2024-04-30T01:35:00+01:00,MW,-6.009
Rogerstone,2024-04-30T01:40:00+01:00,MW,-6.127000000000001
Rogerstone,2024-04-30T01:45:00+01:00,MW,-6.038
Rogerstone,2024-04-30T01:50:00+01:00,MW,-5.943
Rogerstone,2024-04-30T01:55:00+01:00,MW,-5.978
Rogerstone,2024-04-30T02:00:00+01:00,MW,-5.93
Rogerstone,2024-04-30T02:05:00+01:00,MW,-5.8
Rogerstone,2024-04-30T02:10:00+01:00,MW,-6.042
Rogerstone,2024-04-30T02:15:00+01:00,MW,-6.029
Rogerstone,2024-04-30T02:20:00+01:00,MW,-6.086
Rogerstone,2024-04-30T02:25:00+01:00,MW,-6.013999999999999
Rogerstone,2024-04-30T02:30:00+01:00,MW,-5.802
Rogerstone,2024-04-30T02:35:00+01:00,MW,-5.7940000000000005
Rogerstone,2024-04-30T02:40:00+01:00,MW,-5.724
Rogerstone,2024-04-30T02:45:00+01:00,MW,-5.602
Rogerstone,2024-04-30T02:50:00+01:00,MW,-5.767
Rogerstone,2024-04-30T02:55:00+01:00,MW,-5.634
Rogerstone,2024-04-30T03:00:00+01:00,MW,-5.574
Rogerstone,2024-04-30T03:05:00+01:00,MW,-5.602
Rogerstone,2024-04-30T03:10:00+01:00,MW,-5.758
Rogerstone,2024-04-30T03:15:00+01:00,MW,-5.841
Rogerstone,2024-04-30T03:20:00+01:00,MW,-5.493
Rogerstone,2024-04-30T03:25:00+01:00,MW,-5.58
Rogerstone,2024-04-30T03:30:00+01:00,MW,-5.652
Rogerstone,2024-04-30T03:35:00+01:00,MW,-5.678000000000001
Rogerstone,2024-04-30T03:40:00+01:00,MW,-5.558999999999999
Rogerstone,2024-04-30T03:45:00+01:00,MW,-5.416
Rogerstone,2024-04-30T03:50:00+01:00,MW,-5.547000000000001
Rogerstone,2024-04-30T03:55:00+01:00,MW,-5.449
Rogerstone,2024-04-30T04:00:00+01:00,MW,-5.55
Rogerstone,2024-04-30T04:05:00+01:00,MW,-5.538
Rogerstone,2024-04-30T04:10:00+01:00,MW,-5.585
Rogerstone,2024-04-30T04:15:00+01:00,MW,-5.63
Rogerstone,2024-04-30T04:20:00+01:00,MW,-5.577
Rogerstone,2024-04-30T04:25:00+01:00,MW,-5.609
Rogerstone,2024-04-30T04:30:00+01:00,MW,-5.696
Rogerstone,2024-04-30T04:35:00+01:00,MW,-5.416
Rogerstone,2024-04-30T04:40:00+01:00,MW,-5.491
Rogerstone,2024-04-30T04:45:00+01:00,MW,-5.438000000000001
Rogerstone,2024-04-30T04:50:00+01:00,MW,-5.3469999999999995
Rogerstone,2024-04-30T04:55:00+01:00,MW,-5.336
Rogerstone,2024-04-30T05:00:00+01:00,MW,-5.316000000000001
Rogerstone,2024-04-30T05:05:00+01:00,MW,-5.378
Rogerstone,2024-04-30T05:10:00+01:00,MW,-5.833
Rogerstone,2024-04-30T05:15:00+01:00,MW,-5.753
Rogerstone,2024-04-30T05:20:00+01:00,MW,-5.635
Rogerstone,2024-04-30T05:25:00+01:00,MW,-5.86
Rogerstone,2024-04-30T05:30:00+01:00,MW,-5.769
Rogerstone,2024-04-30T05:35:00+01:00,MW,-5.772
Rogerstone,2024-04-30T05:40:00+01:00,MW,-5.862
Rogerstone,2024-04-30T05:45:00+01:00,MW,-5.829000000000001
Rogerstone,2024-04-30T05:50:00+01:00,MW,-5.772
Rogerstone,2024-04-30T05:55:00+01:00,MW,-5.958
Rogerstone,2024-04-30T06:00:00+01:00,MW,-5.763
Rogerstone,2024-04-30T06:05:00+01:00,MW,-6.074
Rogerstone,2024-04-30T06:10:00+01:00,MW,-6.276
Rogerstone,2024-04-30T06:15:00+01:00,MW,-6.122
Rogerstone,2024-04-30T06:20:00+01:00,MW,-6.4670000000000005
Rogerstone,2024-04-30T06:25:00+01:00,MW,-6.4719999999999995
Rogerstone,2024-04-30T06:30:00+01:00,MW,-6.657
Rogerstone,2024-04-30T06:35:00+01:00,MW,-6.832000000000001
Rogerstone,2024-04-30T06:40:00+01:00,MW,-7.006
Rogerstone,2024-04-30T06:45:00+01:00,MW,-7.063000000000001
Rogerstone,2024-04-30T06:50:00+01:00,MW,-7.112
Rogerstone,2024-04-30T06:55:00+01:00,MW,-7.288
Rogerstone,2024-04-30T07:00:00+01:00,MW,-7.524
Rogerstone,2024-04-30T07:05:00+01:00,MW,-8.006
Rogerstone,2024-04-30T07:10:00+01:00,MW,-8.235
Rogerstone,2024-04-30T07:15:00+01:00,MW,-8.582999999999998
Rogerstone,2024-04-30T07:20:00+01:00,MW,-8.646
Rogerstone,2024-04-30T07:25:00+01:00,MW,-8.998
Rogerstone,2024-04-30T07:30:00+01:00,MW,-8.815999999999999
Rogerstone,2024-04-30T07:35:00+01:00,MW,-8.835
Rogerstone,2024-04-30T07:40:00+01:00,MW,-8.879
Rogerstone,2024-04-30T07:45:00+01:00,MW,-9.148
Rogerstone,2024-04-30T07:50:00+01:00,MW,-8.963999999999999
Rogerstone,2024-04-30T07:55:00+01:00,MW,-9.050999999999998
Rogerstone,2024-04-30T08:00:00+01:00,MW,-9.209
Rogerstone,2024-04-30T08:05:00+01:00,MW,-9.141
Rogerstone,2024-04-30T08:10:00+01:00,MW,-9.222
Rogerstone,2024-04-30T08:15:00+01:00,MW,-9.238
Rogerstone,2024-04-30T08:20:00+01:00,MW,-9.286999999999999
Rogerstone,2024-04-30T08:25:00+01:00,MW,-9.419
Rogerstone,2024-04-30T08:30:00+01:00,MW,-9.177
Rogerstone,2024-04-30T08:35:00+01:00,MW,-9.265
Rogerstone,2024-04-30T08:40:00+01:00,MW,-9.352
Rogerstone,2024-04-30T08:45:00+01:00,MW,-9.359
Rogerstone,2024-04-30T08:50:00+01:00,MW,-9.271
Rogerstone,2024-04-30T08:55:00+01:00,MW,-9.370000000000001
Rogerstone,2024-04-30T09:00:00+01:00,MW,-9.306999999999999
Rogerstone,2024-04-30T09:05:00+01:00,MW,-9.562
Rogerstone,2024-04-30T09:10:00+01:00,MW,-9.591999999999999
Rogerstone,2024-04-30T09:15:00+01:00,MW,-9.727
Rogerstone,2024-04-30T09:20:00+01:00,MW,-9.583
Rogerstone,2024-04-30T09:25:00+01:00,MW,-9.621
Rogerstone,2024-04-30T09:30:00+01:00,MW,-9.588000000000001
Rogerstone,2024-04-30T09:35:00+01:00,MW,-9.771
Rogerstone,2024-04-30T09:40:00+01:00,MW,-9.67
Rogerstone,2024-04-30T09:45:00+01:00,MW,-9.575
Rogerstone,2024-04-30T09:50:00+01:00,MW,-9.638
Rogerstone,2024-04-30T09:55:00+01:00,MW,-9.736
Rogerstone,2024-04-30T10:00:00+01:00,MW,-9.676
Rogerstone,2024-04-30T10:05:00+01:00,MW,-9.597
Rogerstone,2024-04-30T10:10:00+01:00,MW,-9.568999999999999
Rogerstone,2024-04-30T10:15:00+01:00,MW,-9.635
Rogerstone,2024-04-30T10:20:00+01:00,MW,-9.494
Rogerstone,2024-04-30T10:25:00+01:00,MW,-9.562999999999999
Rogerstone,2024-04-30T10:30:00+01:00,MW,-9.584
Rogerstone,2024-04-30T10:35:00+01:00,MW,-9.508
Rogerstone,2024-04-30T10:40:00+01:00,MW,-9.463999999999999
Rogerstone,2024-04-30T10:45:00+01:00,MW,-9.471
Rogerstone,2024-04-30T10:50:00+01:00,MW,-9.541
Rogerstone,2024-04-30T10:55:00+01:00,MW,-9.623000000000001
Rogerstone,2024-04-30T11:00:00+01:00,MW,-9.219999999999999
Rogerstone,2024-04-30T11:05:00+01:00,MW,-9.445
Rogerstone,2024-04-30T11:10:00+01:00,MW,-9.336
Rogerstone,2024-04-30T11:15:00+01:00,MW,-9.431000000000001
Rogerstone,2024-04-30T11:20:00+01:00,MW,-9.369
Rogerstone,2024-04-30T11:25:00+01:00,MW,-9.219000000000001
Rogerstone,2024-04-30T11:30:00+01:00,MW,-9.089
Rogerstone,2024-04-30T11:35:00+01:00,MW,-9.155000000000001
Rogerstone,2024-04-30T11:40:00+01:00,MW,-8.081
Rogerstone,2024-04-30T11:45:00+01:00,MW,-7.955
Rogerstone,2024-04-30T11:50:00+01:00,MW,-7.642
Rogerstone,2024-04-30T11:55:00+01:00,MW,-7.816
Rogerstone,2024-04-30T12:00:00+01:00,MW,-9.21
Rogerstone,2024-04-30T12:05:00+01:00,MW,-9.416
Rogerstone,2024-04-30T12:10:00+01:00,MW,-9.488
Rogerstone,2024-04-30T12:15:00+01:00,MW,-9.677
Rogerstone,2024-04-30T12:20:00+01:00,MW,-9.593
Rogerstone,2024-04-30T12:25:00+01:00,MW,-9.431000000000001
Rogerstone,2024-04-30T12:30:00+01:00,MW,-9.69
Rogerstone,2024-04-30T12:35:00+01:00,MW,-9.634
Rogerstone,2024-04-30T12:40:00+01:00,MW,-9.51
Rogerstone,2024-04-30T12:45:00+01:00,MW,-9.358
Rogerstone,2024-04-30T12:50:00+01:00,MW,-9.135
Rogerstone,2024-04-30T12:55:00+01:00,MW,-9.032
Rogerstone,2024-04-30T13:00:00+01:00,MW,-9.331
Rogerstone,2024-04-30T13:05:00+01:00,MW,-9.455
Rogerstone,2024-04-30T13:10:00+01:00,MW,-9.271
Rogerstone,2024-04-30T13:15:00+01:00,MW,-9.158999999999999
Rogerstone,2024-04-30T13:20:00+01:00,MW,-8.969000000000001
Rogerstone,2024-04-30T13:25:00+01:00,MW,-8.57
Rogerstone,2024-04-30T13:30:00+01:00,MW,-8.270999999999999
Rogerstone,2024-04-30T13:35:00+01:00,MW,-8.113
Rogerstone,2024-04-30T13:40:00+01:00,MW,-8.094000000000001
Rogerstone,2024-04-30T13:45:00+01:00,MW,-7.917999999999999
Rogerstone,2024-04-30T13:50:00+01:00,MW,-7.3469999999999995
Rogerstone,2024-04-30T13:55:00+01:00,MW,-7.617
Rogerstone,2024-04-30T14:00:00+01:00,MW,-7.807
Rogerstone,2024-04-30T14:05:00+01:00,MW,-7.809
Rogerstone,2024-04-30T14:10:00+01:00,MW,-7.608
Rogerstone,2024-04-30T14:15:00+01:00,MW,-7.791
Rogerstone,2024-04-30T14:20:00+01:00,MW,-8.044
Rogerstone,2024-04-30T14:25:00+01:00,MW,-7.882999999999999
Rogerstone,2024-04-30T14:30:00+01:00,MW,-7.643000000000001
Rogerstone,2024-04-30T14:35:00+01:00,MW,-7.947
Rogerstone,2024-04-30T14:40:00+01:00,MW,-8.097999999999999
Rogerstone,2024-04-30T14:45:00+01:00,MW,-8.291
Rogerstone,2024-04-30T14:50:00+01:00,MW,-8.123999999999999
Rogerstone,2024-04-30T14:55:00+01:00,MW,-8.381
Rogerstone,2024-04-30T15:00:00+01:00,MW,-8.536999999999999
Rogerstone,2024-04-30T15:05:00+01:00,MW,-8.44
Rogerstone,2024-04-30T15:10:00+01:00,MW,-8.16
Rogerstone,2024-04-30T15:15:00+01:00,MW,-8.339
Rogerstone,2024-04-30T15:20:00+01:00,MW,-8.7
Rogerstone,2024-04-30T15:25:00+01:00,MW,-8.782
Rogerstone,2024-04-30T15:30:00+01:00,MW,-8.744
Rogerstone,2024-04-30T15:35:00+01:00,MW,-8.843
Rogerstone,2024-04-30T15:40:00+01:00,MW,-8.724
Rogerstone,2024-04-30T15:45:00+01:00,MW,-8.933
Rogerstone,2024-04-30T15:50:00+01:00,MW,-8.949000000000002
Rogerstone,2024-04-30T15:55:00+01:00,MW,-9.234
Rogerstone,2024-04-30T16:00:00+01:00,MW,-9.376
Rogerstone,2024-04-30T16:05:00+01:00,MW,-9.445
Rogerstone,2024-04-30T16:10:00+01:00,MW,-9.553
Rogerstone,2024-04-30T16:15:00+01:00,MW,-9.518
Rogerstone,2024-04-30T16:20:00+01:00,MW,-9.456
Rogerstone,2024-04-30T16:25:00+01:00,MW,-9.665
Rogerstone,2024-04-30T16:30:00+01:00,MW,-9.945
Rogerstone,2024-04-30T16:35:00+01:00,MW,-9.855
Rogerstone,2024-04-30T16:40:00+01:00,MW,-10.145
Rogerstone,2024-04-30T16:45:00+01:00,MW,-10.469999999999999
Rogerstone,2024-04-30T16:50:00+01:00,MW,-10.525
Rogerstone,2024-04-30T16:55:00+01:00,MW,-10.403
Rogerstone,2024-04-30T17:00:00+01:00,MW,-10.514
Rogerstone,2024-04-30T17:05:00+01:00,MW,-10.835
Rogerstone,2024-04-30T17:10:00+01:00,MW,-10.661999999999999
Rogerstone,2024-04-30T17:15:00+01:00,MW,-10.902
Rogerstone,2024-04-30T17:20:00+01:00,MW,-11.219999999999999
Rogerstone,2024-04-30T17:25:00+01:00,MW,-11.347
Rogerstone,2024-04-30T17:30:00+01:00,MW,-11.253
Rogerstone,2024-04-30T17:35:00+01:00,MW,-10.989
Rogerstone,2024-04-30T17:40:00+01:00,MW,-10.866
Rogerstone,2024-04-30T17:45:00+01:00,MW,-11.141
Rogerstone,2024-04-30T17:50:00+01:00,MW,-10.985
Rogerstone,2024-04-30T17:55:00+01:00,MW,-11.196
Rogerstone,2024-04-30T18:00:00+01:00,MW,-11.303
Rogerstone,2024-04-30T18:05:00+01:00,MW,-11.152000000000001
Rogerstone,2024-04-30T18:10:00+01:00,MW,-10.977
Rogerstone,2024-04-30T18:15:00+01:00,MW,-11.158
Rogerstone,2024-04-30T18:20:00+01:00,MW,-11.402000000000001
Rogerstone,2024-04-30T18:25:00+01:00,MW,-11.620000000000001
Rogerstone,2024-04-30T18:30:00+01:00,MW,-11.405999999999999
Rogerstone,2024-04-30T18:35:00+01:00,MW,-11.551
Rogerstone,2024-04-30T18:40:00+01:00,MW,-11.401
Rogerstone,2024-04-30T18:45:00+01:00,MW,-11.392
Rogerstone,2024-04-30T18:50:00+01:00,MW,-11.076
Rogerstone,2024-04-30T18:55:00+01:00,MW,-11.151
Rogerstone,2024-04-30T19:00:00+01:00,MW,-11.109
Rogerstone,2024-04-30T19:05:00+01:00,MW,-10.84
Rogerstone,2024-04-30T19:10:00+01:00,MW,-10.712
Rogerstone,2024-04-30T19:15:00+01:00,MW,-10.693
Rogerstone,2024-04-30T19:20:00+01:00,MW,-10.652000000000001
Rogerstone,2024-04-30T19:25:00+01:00,MW,-10.706
Rogerstone,2024-04-30T19:30:00+01:00,MW,-10.628
Rogerstone,2024-04-30T19:35:00+01:00,MW,-10.686
Rogerstone,2024-04-30T19:40:00+01:00,MW,-10.687000000000001
Rogerstone,2024-04-30T19:45:00+01:00,MW,-10.733
Rogerstone,2024-04-30T19:50:00+01:00,MW,-10.565
Rogerstone,2024-04-30T19:55:00+01:00,MW,-10.523
Rogerstone,2024-04-30T20:00:00+01:00,MW,-10.54
Rogerstone,2024-04-30T20:05:00+01:00,MW,-10.693999999999999
Rogerstone,2024-04-30T20:10:00+01:00,MW,-10.846
Rogerstone,2024-04-30T20:15:00+01:00,MW,-10.797
Rogerstone,2024-04-30T20:20:00+01:00,MW,-10.657
Rogerstone,2024-04-30T20:25:00+01:00,MW,-10.581
Rogerstone,2024-04-30T20:30:00+01:00,MW,-10.454
Rogerstone,2024-04-30T20:35:00+01:00,MW,-10.486
Rogerstone,2024-04-30T20:40:00+01:00,MW,-10.431000000000001
Rogerstone,2024-04-30T20:45:00+01:00,MW,-10.229
Rogerstone,2024-04-30T20:50:00+01:00,MW,-10.111
Rogerstone,2024-04-30T20:55:00+01:00,MW,-10.286000000000001
Rogerstone,2024-04-30T21:00:00+01:00,MW,-10.286999999999999
Rogerstone,2024-04-30T21:05:00+01:00,MW,-10.45
Rogerstone,2024-04-30T21:10:00+01:00,MW,-10.308
Rogerstone,2024-04-30T21:15:00+01:00,MW,-10.117999999999999
Rogerstone,2024-04-30T21:20:00+01:00,MW,-10.022
Rogerstone,2024-04-30T21:25:00+01:00,MW,-9.93
Rogerstone,2024-04-30T21:30:00+01:00,MW,-9.584
Rogerstone,2024-04-30T21:35:00+01:00,MW,-9.46
Rogerstone,2024-04-30T21:40:00+01:00,MW,-9.289
Rogerstone,2024-04-30T21:45:00+01:00,MW,-9.082
Rogerstone,2024-04-30T21:50:00+01:00,MW,-8.917
Rogerstone,2024-04-30T21:55:00+01:00,MW,-8.876999999999999
Rogerstone,2024-04-30T22:00:00+01:00,MW,-8.813
Rogerstone,2024-04-30T22:05:00+01:00,MW,-8.634
Rogerstone,2024-04-30T22:10:00+01:00,MW,-8.354000000000001
Rogerstone,2024-04-30T22:15:00+01:00,MW,-8.228
Rogerstone,2024-04-30T22:20:00+01:00,MW,-8.152
Rogerstone,2024-04-30T22:25:00+01:00,MW,-8.033
Rogerstone,2024-04-30T22:30:00+01:00,MW,-7.806000000000001
Rogerstone,2024-04-30T22:35:00+01:00,MW,-7.691
Rogerstone,2024-04-30T22:40:00+01:00,MW,-7.801
Rogerstone,2024-04-30T22:45:00+01:00,MW,-7.651999999999999
Rogerstone,2024-04-30T22:50:00+01:00,MW,-7.676
Rogerstone,2024-04-30T22:55:00+01:00,MW,-7.624
Rogerstone,2024-04-30T23:00:00+01:00,MW,-7.7059999999999995
Rogerstone,2024-04-30T23:05:00+01:00,MW,-7.521
Rogerstone,2024-04-30T23:10:00+01:00,MW,-7.536
Rogerstone,2024-04-30T23:15:00+01:00,MW,-7.619999999999999
Rogerstone,2024-04-30T23:20:00+01:00,MW,-7.425000000000001
Rogerstone,2024-04-30T23:25:00+01:00,MW,-7.181
Rogerstone,2024-04-30T23:30:00+01:00,MW,-7.164
Rogerstone,2024-04-30T23:35:00+01:00,MW,-7.209
Rogerstone,2024-04-30T23:40:00+01:00,MW,-7.314
Rogerstone,2024-04-30T23:45:00+01:00,MW,-7.304
Rogerstone,2024-04-30T23:50:00+01:00,MW,-7.117
Rogerstone,2024-04-30T23:55:00+01:00,MW,-7.077
Rogerstone,2024-05-01T00:00:00+01:00,MW,-7.106
